Simultaneous Nadir Overpasses (SNOs) Predictions

Prediction of SNOs between METOP-B and NOAA-19 Satellite Orbit:

Table of predicted SNOs for the next 14.0 days since TLE Epoch: 1/18/2025
Index Date (METOP-B) Time (METOP-B) Lat,Lon (METOP-B) SZA (METOP-B ) Date (NOAA-19) Time (NOAA-19) Lat,Lon (NOAA-19) SZA (NOAA-19 ) Distance(km) Time Diff (sec)
1 01/21/2025 10:17:56 -80.38, -78.69 73.29 01/21/2025 10:16:43 -80.39, -78.79 73.35 2.09 73
2 01/21/2025 11:08:37 80.38, 88.67 106.71 01/21/2025 11:07:37 80.38, 88.70 106.67 0.66 60
3 01/21/2025 11:59:17 -80.36,-103.73 73.27 01/21/2025 11:58:38 -80.35,-103.64 73.28 2.04 39
4 01/21/2025 12:49:57 80.33, 63.94 106.77 01/21/2025 12:49:32 80.33, 63.85 106.74 1.85 25
5 01/21/2025 13:40:37 -80.30,-128.47 73.21 01/21/2025 13:40:33 -80.31,-128.49 73.22 0.44 4
6 01/21/2025 14:31:18 80.30, 38.88 106.79 01/21/2025 14:31:27 80.29, 38.99 106.81 2.27 9
7 01/21/2025 15:21:58 -80.28,-153.52 73.19 01/21/2025 15:22:29 -80.29,-153.67 73.19 2.89 31
8 01/21/2025 16:12:38 80.25, 14.14 106.85 01/21/2025 16:13:22 80.25, 14.13 106.88 0.23 44



Historial Predications of SNOs between METOP-B and NOAA-19
